TimeAKST,TemperatureF,Dew PointF,Humidity,Sea Level PressureIn,VisibilityMPH,Wind Direction,Wind SpeedMPH,Gust SpeedMPH,PrecipitationIn,Events,Conditions,WindDirDegrees,DateUTC
12:53 AM,19.9,18.0,92,30.40,10.0,North,5.8,-,N/A,,Overcast,10,2012-11-07 09:53:00
1:53 AM,21.9,19.9,92,30.40,10.0,Calm,Calm,-,N/A,,Overcast,0,2012-11-07 10:53:00
2:53 AM,23.0,21.0,92,30.41,10.0,Calm,Calm,-,N/A,,Overcast,0,2012-11-07 11:53:00
3:53 AM,24.1,21.9,91,30.41,10.0,Calm,Calm,-,N/A,,Overcast,0,2012-11-07 12:53:00
4:53 AM,24.1,21.9,91,30.42,10.0,Calm,Calm,-,N/A,,Overcast,0,2012-11-07 13:53:00
5:53 AM,24.1,21.9,91,30.43,10.0,Calm,Calm,-,N/A,,Overcast,0,2012-11-07 14:53:00
6:53 AM,24.1,21.9,91,30.43,10.0,Calm,Calm,-,N/A,,Overcast,0,2012-11-07 15:53:00
7:53 AM,25.0,23.0,92,30.43,10.0,Calm,Calm,-,N/A,,Overcast,0,2012-11-07 16:53:00
8:53 AM,25.0,21.9,88,30.44,10.0,Calm,Calm,-,N/A,,Overcast,0,2012-11-07 17:53:00
9:53 AM,25.0,23.0,92,30.44,10.0,NNE,3.5,-,N/A,,Overcast,30,2012-11-07 18:53:00
10:53 AM,27.0,23.0,85,30.45,10.0,Calm,Calm,-,N/A,,Overcast,0,2012-11-07 19:53:00
11:53 AM,27.0,24.1,89,30.45,10.0,East,5.8,-,N/A,,Overcast,90,2012-11-07 20:53:00
12:45 PM,26.6,24.8,93,30.45,10.0,East,6.9,-,N/A,,Overcast,80,2012-11-07 21:45:00
12:53 PM,27.0,25.0,92,30.46,10.0,East,6.9,-,N/A,,Overcast,80,2012-11-07 21:53:00
1:29 PM,26.6,26.6,100,30.45,10.0,East,9.2,-,N/A,,Overcast,80,2012-11-07 22:29:00
1:53 PM,27.0,27.0,100,30.45,10.0,East,8.1,-,N/A,,Overcast,80,2012-11-07 22:53:00
2:53 PM,27.0,26.1,96,30.45,6.0,ENE,6.9,-,N/A,,Overcast,60,2012-11-07 23:53:00
3:53 PM,28.0,26.1,92,30.44,10.0,ENE,5.8,-,N/A,,Overcast,60,2012-11-08 00:53:00
4:21 PM,28.4,24.8,86,30.43,10.0,ENE,4.6,-,N/A,,Overcast,60,2012-11-08 01:21:00
4:53 PM,28.0,25.0,88,30.42,10.0,NE,4.6,-,N/A,,Overcast,50,2012-11-08 01:53:00
5:53 PM,28.0,25.0,88,30.42,10.0,ENE,5.8,-,N/A,,Overcast,60,2012-11-08 02:53:00
6:08 PM,28.4,24.8,86,30.41,10.0,ENE,4.6,-,N/A,,Overcast,70,2012-11-08 03:08:00
6:32 PM,28.4,26.6,93,30.41,6.0,ENE,6.9,-,0.00,Snow,Light Snow,70,2012-11-08 03:32:00
6:53 PM,28.0,26.1,92,30.41,10.0,ENE,6.9,-,0.00,,Overcast,70,2012-11-08 03:53:00
7:53 PM,27.0,24.1,89,30.40,10.0,East,10.4,-,N/A,,Overcast,100,2012-11-08 04:53:00
8:08 PM,26.6,24.8,93,30.39,10.0,ESE,10.4,-,N/A,,Overcast,110,2012-11-08 05:08:00
8:53 PM,27.0,24.1,89,30.38,10.0,East,15.0,-,N/A,,Overcast,100,2012-11-08 05:53:00
9:44 PM,26.6,24.8,93,30.37,10.0,East,13.8,-,N/A,,Overcast,90,2012-11-08 06:44:00
9:53 PM,26.1,24.1,92,30.37,10.0,East,13.8,-,N/A,,Overcast,90,2012-11-08 06:53:00
10:53 PM,25.0,24.1,96,30.36,10.0,East,10.4,-,0.00,,Overcast,80,2012-11-08 07:53:00
11:53 PM,25.0,24.1,96,30.35,10.0,ENE,10.4,-,N/A,,Overcast,70,2012-11-08 08:53:00